Regional Weather Roundup
Issued by NWS

Home | Current Version | Previous Version | Text Only | Print | Product List | Glossary Off
Versions: 1 2 3 4 5 6 7 8 9 10 11 12 13 14 15 16 17 18 19 20 21 22 23 24 25 26 27 28 29 30 31 32 33 34 35 36 37 38 39 40 41 42 43 44 45 46 47 48 49 50

000
ASUS45 KTFX 271310
RWRMT
MONTANA REGIONAL WEATHER ROUNDUP
NATIONAL WEATHER SERVICE GREAT FALLS MT
700 AM MDT WED MAY 27 2015

NOTE: "FAIR" INDICATES FEW OR NO CLOUDS BELOW 12000 FEET WITH NO
SIGNIFICANT WEATHER AND/OR OBSTRUCTIONS TO VISIBILITY.

MTZ001>007-043-271400-
WEST OF THE DIVIDE

CITY           SKY/WX    TMP DP  RH WIND       PRES   REMARKS
KALISPELL      CLOUDY    46  44  93 CALM      30.02R
MISSOULA       PTCLDY    44  41  89 CALM      30.05R
BUTTE          CLOUDY    46  43  89 CALM      30.07S
MULLAN PASS    PTCLDY    44  39  82 CALM      30.06R
$$

MTZ008-052>055-271400-
SOUTHWEST MONTANA

CITY           SKY/WX    TMP DP  RH WIND       PRES   REMARKS
BOZEMAN        CLOUDY    51  46  83 CALM      30.05R
DILLON         PTSUNNY   48  45  89 NE5       30.05R
W YELLOWSTONE  CLOUDY    41  41 100 S3        30.11R
$$

MTZ009-010-012-014-046-048-049-054-271400-
EAST SLOPES AND CENTRAL MONTANA

CITY           SKY/WX    TMP DP  RH WIND       PRES   REMARKS
CUT BANK       CLOUDY    50  47  89 NW14      30.03R
GREAT FALLS    CLOUDY    50  48  93 SW9       30.02S
MALMSTROM AFB  CLOUDY    51  48  89 W8        30.03S
HELENA         CLOUDY    51  48  89 CALM      30.04R
$$

MTZ011-013-016-021-045-047-050-051-271400-
NORTH CENTRAL MONTANA

CITY           SKY/WX    TMP DP  RH WIND       PRES   REMARKS
HAVRE          PTSUNNY   53  51  93 S5        29.96S
LEWISTOWN      CLOUDY    50  46  86 SW5       30.02R
N BAR RANCH    PTSUNNY   50  45  81 W6        30.03R
$$

MTZ017>020-022>027-061-062-271400-
NORTHEAST MONTANA

CITY           SKY/WX    TMP DP  RH WIND       PRES   REMARKS
GLASGOW        PTSUNNY   58  53  84 S6        29.94R
JORDAN           N/A     57  54  89 NW6       29.94R
SIDNEY         MOSUNNY   55  48  76 CALM      29.93S
WOLF POINT     CLOUDY    58  49  72 CALM      29.93R
$$

MTZ028>42-056>058-271400-
SOUTHCENTRAL AND SOUTHEAST MONTANA

CITY           SKY/WX    TMP DP  RH WIND       PRES   REMARKS
BAKER          PTSUNNY   52  48  86 SE8       29.95F
BILLINGS       PTSUNNY   52  50  93 SW3       29.99S
LIVINGSTON     CLOUDY    52  44  74 W9        30.02S
MILES CITY     CLOUDY    56  51  84 CALM      29.92R
$$

REGIONAL REPORTS...DAKOTAS

CITY           SKY/WX    TMP DP  RH WIND       PRES   REMARKS
WILLISTON      SUNNY     59  47  64 CALM      29.93S
MINOT          MOSUNNY   59  48  67 E5        29.95R
DICKINSON      MOSUNNY   57  47  69 SE5       29.95R
BEACH          FAIR      54  54 100 S8        29.95S
CROSBY         FAIR      59  50  72 E8        29.95S
WATFORD CITY   FAIR      55  46  71 SE3       29.92F
BISMARCK       SUNNY     59  50  72 W3        29.96S
GRAND FORKS    PTSUNNY   56  45  66 N14       29.92R
FARGO          SUNNY     61  51  70 NW7       29.90R
BUFFALO SD       N/A     54  48  80 SW5       29.91R
RAPID CITY     CLOUDY    55  52  89 SE5       29.99S
$$

REGIONAL REPORTS...WYOMING/IDAHO/WASHINGTON

CITY           SKY/WX    TMP DP  RH WIND       PRES   REMARKS
GILLETTE       MOSUNNY   51  48  89 S8        29.99S
SHERIDAN       CLOUDY    50  47  89 CALM      29.99R
BUFFALO WY     LGT RAIN  51  47  86 NW8       30.01R
CODY           MOSUNNY   52  45  76 CALM      30.03R
YELLOWSTONE LA   N/A     38  36  92 CALM      30.16S
IDAHO FALLS    PTSUNNY   45  44  97 CALM      30.07R
SALMON         CLOUDY    48  45  87 S5        30.04R
BOISE          MOCLDY    55  50  83 SE7       29.99F
SPOKANE        PTCLDY    50  48  93 CALM      30.01R
$$

REGIONAL REPORTS...ALBERTA

CITY           SKY/WX    TMP DP  RH WIND       PRES   REMARKS
EDMONTON       PTSUNNY   54  48  82 S2        29.98R
CALGARY        PTSUNNY   54  46  76 N3        30.03F
LETHBRIDGE     PTSUNNY   54  50  87 W10       30.03R
MEDICINE HAT   CLOUDY    57  50  77 NW8       29.96S
$$

REGIONAL REPORTS...SASKATCHEWAN

CITY           SKY/WX    TMP DP  RH WIND       PRES   REMARKS
SWIFT CURRENT  MOSUNNY   54  48  82 E15       29.95S
REGINA         PTSUNNY   54  46  76 E12       29.99R
SASKATOON      PTSUNNY   46  41  81 E7        30.06R
$$


USA.gov is the U.S. government's official web portal to all federal, state and local government web resources and services.